Time,TemperatureF,DewpointF,PressureIn,WindDirection,WindDirectionDegrees,WindSpeedMPH,WindSpeedGustMPH,Humidity,HourlyPrecipIn,Conditions,Clouds,dailyrainin,SoftwareType,DateUTC
2013-04-28 00:00:00,51.7,49.2,30.02,North,355,0.0,0.0,91,0.00,,---,0.26,VWS V14.01,2013-04-28 05:00:00,
2013-04-28 00:01:00,50.5,48.0,30.00,North,355,0.0,0.0,91,0.00,,---,0.00,VWS V14.01,2013-04-28 05:01:00,
2013-04-28 00:06:00,50.2,47.7,30.00,North,355,0.0,0.0,91,0.00,,---,0.00,VWS V14.01,2013-04-28 05:06:00,
2013-04-28 00:11:00,49.9,47.4,30.00,North,355,0.0,0.0,91,0.00,,---,0.00,VWS V14.01,2013-04-28 05:11:00,
2013-04-28 00:16:00,49.6,47.1,29.99,North,355,0.0,0.0,91,0.00,,---,0.00,VWS V14.01,2013-04-28 05:16:00,
2013-04-28 00:21:00,49.6,47.4,29.99,NNW,337,0.0,0.0,92,0.00,,---,0.00,VWS V14.01,2013-04-28 05:21:00,
2013-04-28 00:26:00,49.5,47.3,29.99,NW,317,1.0,1.0,92,0.00,,---,0.00,VWS V14.01,2013-04-28 05:26:00,
2013-04-28 00:30:00,51.6,49.1,30.01,North,355,0.0,0.0,91,0.00,,---,0.26,VWS V14.01,2013-04-28 05:30:00,
2013-04-28 00:31:00,49.5,47.3,29.99,NW,316,0.0,2.0,92,0.00,,---,0.00,VWS V14.01,2013-04-28 05:31:00,
2013-04-28 00:36:00,49.4,47.2,29.99,NW,316,0.0,2.0,92,0.00,,---,0.00,VWS V14.01,2013-04-28 05:36:00,
2013-04-28 00:41:00,49.2,47.0,29.99,NW,316,0.0,2.0,92,0.00,,---,0.00,VWS V14.01,2013-04-28 05:41:00,
2013-04-28 00:46:00,49.2,47.0,30.00,NW,314,0.0,2.0,92,0.00,,---,0.00,VWS V14.01,2013-04-28 05:46:00,
2013-04-28 00:51:00,49.1,46.9,30.00,NW,314,0.0,2.0,92,0.00,,---,0.00,VWS V14.01,2013-04-28 05:51:00,
2013-04-28 00:56:00,49.1,46.9,30.00,NW,314,0.0,2.0,92,0.00,,---,0.00,VWS V14.01,2013-04-28 05:56:00,
2013-04-28 01:00:00,50.5,48.0,30.00,North,355,0.0,0.0,91,0.00,,---,0.00,VWS V14.01,2013-04-28 06:00:00,
2013-04-28 01:01:00,48.9,46.7,29.99,NW,314,0.0,0.0,92,0.00,,---,0.00,VWS V14.01,2013-04-28 06:01:00,
2013-04-28 01:06:00,48.8,46.6,29.99,NW,314,0.0,0.0,92,0.00,,---,0.00,VWS V14.01,2013-04-28 06:06:00,
2013-04-28 01:11:00,48.6,46.4,29.99,NW,314,0.0,0.0,92,0.00,,---,0.00,VWS V14.01,2013-04-28 06:11:00,
2013-04-28 01:16:00,48.3,46.1,29.99,NW,314,0.0,0.0,92,0.00,,---,0.00,VWS V14.01,2013-04-28 06:16:00,
2013-04-28 01:21:00,48.2,46.0,29.99,NW,314,0.0,0.0,92,0.00,,---,0.00,VWS V14.01,2013-04-28 06:21:00,
2013-04-28 01:26:00,48.0,45.8,29.99,NW,314,0.0,0.0,92,0.00,,---,0.00,VWS V14.01,2013-04-28 06:26:00,
2013-04-28 01:30:00,49.5,47.3,29.99,NW,316,0.0,2.0,92,0.00,,---,0.00,VWS V14.01,2013-04-28 06:30:00,
2013-04-28 01:31:00,47.7,45.5,29.98,NW,314,0.0,0.0,92,0.00,,---,0.00,VWS V14.01,2013-04-28 06:31:00,
2013-04-28 01:36:00,47.6,45.7,29.98,NW,314,0.0,0.0,93,0.00,,---,0.00,VWS V14.01,2013-04-28 06:36:00,
2013-04-28 01:41:00,47.6,45.7,29.98,NW,314,0.0,0.0,93,0.00,,---,0.00,VWS V14.01,2013-04-28 06:41:00,
2013-04-28 01:46:00,47.7,45.8,29.97,NW,314,0.0,0.0,93,0.00,,---,0.00,VWS V14.01,2013-04-28 06:46:00,
2013-04-28 01:51:00,47.9,46.0,29.97,NW,314,0.0,0.0,93,0.00,,---,0.00,VWS V14.01,2013-04-28 06:51:00,
2013-04-28 01:56:00,47.7,45.8,29.97,NW,314,0.0,0.0,93,0.00,,---,0.00,VWS V14.01,2013-04-28 06:56:00,
2013-04-28 02:00:00,48.9,46.7,29.99,NW,314,0.0,2.0,92,0.00,,---,0.00,VWS V14.01,2013-04-28 07:00:00,
2013-04-28 02:01:00,47.7,45.8,29.97,NW,314,0.0,0.0,93,0.00,,---,0.00,VWS V14.01,2013-04-28 07:01:00,
2013-04-28 02:06:00,47.7,45.8,29.97,NW,314,0.0,0.0,93,0.00,,---,0.00,VWS V14.01,2013-04-28 07:06:00,
2013-04-28 02:11:00,47.7,45.8,29.97,NW,314,0.0,0.0,93,0.00,,---,0.00,VWS V14.01,2013-04-28 07:11:00,
2013-04-28 02:16:00,47.7,45.8,29.97,NW,314,0.0,0.0,93,0.00,,---,0.00,VWS V14.01,2013-04-28 07:16:00,
2013-04-28 02:20:00,47.6,45.7,29.97,NW,314,0.0,0.0,93,0.00,,---,0.00,VWS V14.01,2013-04-28 07:20:00,
2013-04-28 02:25:00,47.4,45.5,29.97,NW,314,0.0,2.0,93,0.00,,---,0.00,VWS V14.01,2013-04-28 07:25:00,
2013-04-28 02:30:00,47.3,45.4,29.97,NW,314,0.0,0.0,93,0.00,,---,0.00,VWS V14.01,2013-04-28 07:30:00,
2013-04-28 02:35:00,47.1,45.2,29.97,NW,314,0.0,0.0,93,0.00,,---,0.00,VWS V14.01,2013-04-28 07:35:00,
2013-04-28 02:40:00,47.0,45.1,29.97,NW,314,0.0,0.0,93,0.00,,---,0.00,VWS V14.01,2013-04-28 07:40:00,
2013-04-28 02:45:00,46.8,45.2,29.96,NW,314,0.0,0.0,94,0.00,,---,0.00,VWS V14.01,2013-04-28 07:45:00,
2013-04-28 02:50:00,46.7,45.1,29.96,NW,314,0.0,0.0,94,0.00,,---,0.00,VWS V14.01,2013-04-28 07:50:00,
2013-04-28 02:55:00,46.5,44.9,29.96,NW,314,0.0,0.0,94,0.00,,---,0.00,VWS V14.01,2013-04-28 07:55:00,
2013-04-28 03:00:00,46.4,44.8,29.97,NW,314,0.0,0.0,94,0.00,,---,0.00,VWS V14.01,2013-04-28 08:00:00,
2013-04-28 03:05:00,46.2,44.6,29.97,NW,314,0.0,2.0,94,0.00,,---,0.00,VWS V14.01,2013-04-28 08:05:00,
2013-04-28 03:10:00,46.4,44.8,29.97,NW,314,0.0,2.0,94,0.00,,---,0.00,VWS V14.01,2013-04-28 08:10:00,
2013-04-28 03:15:00,46.2,44.6,29.97,NW,314,0.0,2.0,94,0.00,,---,0.00,VWS V14.01,2013-04-28 08:15:00,
2013-04-28 03:20:00,46.1,44.5,29.97,NW,314,0.0,2.0,94,0.00,,---,0.00,VWS V14.01,2013-04-28 08:20:00,
2013-04-28 03:25:00,46.0,44.4,29.97,NW,314,0.0,2.0,94,0.00,,---,0.00,VWS V14.01,2013-04-28 08:25:00,
2013-04-28 03:30:00,46.0,44.4,29.97,NW,314,0.0,0.0,94,0.00,,---,0.00,VWS V14.01,2013-04-28 08:30:00,
2013-04-28 03:35:00,45.8,44.2,29.97,NW,314,0.0,0.0,94,0.00,,---,0.00,VWS V14.01,2013-04-28 08:35:00,
2013-04-28 03:40:00,45.7,44.1,29.97,NW,314,0.0,0.0,94,0.00,,---,0.00,VWS V14.01,2013-04-28 08:40:00,
2013-04-28 03:45:00,45.7,44.1,29.95,NW,314,0.0,0.0,94,0.00,,---,0.00,VWS V14.01,2013-04-28 08:45:00,
2013-04-28 03:50:00,45.5,43.9,29.95,NW,314,0.0,0.0,94,0.00,,---,0.00,VWS V14.01,2013-04-28 08:50:00,
2013-04-28 03:55:00,45.4,43.8,29.95,NW,314,0.0,0.0,94,0.00,,---,0.00,VWS V14.01,2013-04-28 08:55:00,
2013-04-28 04:00:00,45.1,43.5,29.94,NW,314,0.0,0.0,94,0.00,,---,0.00,VWS V14.01,2013-04-28 09:00:00,
2013-04-28 04:05:00,44.6,43.0,29.94,NW,314,0.0,0.0,94,0.00,,---,0.00,VWS V14.01,2013-04-28 09:05:00,
2013-04-28 04:10:00,44.6,43.0,29.94,NW,314,0.0,0.0,94,0.00,,---,0.00,VWS V14.01,2013-04-28 09:10:00,
2013-04-28 04:15:00,44.8,43.5,29.95,NW,314,0.0,0.0,95,0.00,,---,0.00,VWS V14.01,2013-04-28 09:15:00,
2013-04-28 04:20:00,44.9,43.6,29.95,NW,314,0.0,0.0,95,0.00,,---,0.00,VWS V14.01,2013-04-28 09:20:00,
2013-04-28 04:25:00,45.2,43.9,29.95,NW,306,1.0,2.0,95,0.00,,---,0.00,VWS V14.01,2013-04-28 09:25:00,
2013-04-28 04:30:00,45.7,44.3,29.95,WNW,296,1.0,1.0,95,0.00,,---,0.00,VWS V14.01,2013-04-28 09:30:00,
2013-04-28 04:35:00,45.7,44.3,29.95,West,277,1.0,3.0,95,0.00,,---,0.00,VWS V14.01,2013-04-28 09:35:00,
2013-04-28 04:40:00,45.7,44.3,29.95,West,271,0.0,3.0,95,0.00,,---,0.00,VWS V14.01,2013-04-28 09:40:00,
2013-04-28 04:45:00,45.7,44.3,29.95,West,263,2.0,3.0,95,0.00,,---,0.00,VWS V14.01,2013-04-28 09:45:00,
2013-04-28 04:50:00,45.7,44.3,29.95,WSW,258,1.0,3.0,95,0.00,,---,0.00,VWS V14.01,2013-04-28 09:50:00,
2013-04-28 04:55:00,45.8,44.5,29.95,WSW,257,0.0,3.0,95,0.00,,---,0.00,VWS V14.01,2013-04-28 09:55:00,
2013-04-28 05:00:00,45.7,44.3,29.97,West,265,0.0,0.0,95,0.00,,---,0.00,VWS V14.01,2013-04-28 10:00:00,
2013-04-28 05:05:00,45.5,44.2,29.97,West,265,1.0,2.0,95,0.00,,---,0.00,VWS V14.01,2013-04-28 10:05:00,
2013-04-28 05:10:00,45.4,44.0,29.97,West,265,0.0,2.0,95,0.01,,---,0.01,VWS V14.01,2013-04-28 10:10:00,
2013-04-28 05:15:00,45.2,43.9,29.97,West,264,0.0,2.0,95,0.01,,---,0.01,VWS V14.01,2013-04-28 10:15:00,
2013-04-28 05:20:00,45.1,43.8,29.97,West,264,0.0,2.0,95,0.01,,---,0.01,VWS V14.01,2013-04-28 10:20:00,
2013-04-28 05:25:00,44.9,43.6,29.97,West,265,0.0,2.0,95,0.01,,---,0.01,VWS V14.01,2013-04-28 10:25:00,
2013-04-28 05:30:00,44.9,43.6,29.96,West,265,0.0,0.0,95,0.01,,---,0.01,VWS V14.01,2013-04-28 10:30:00,
2013-04-28 05:35:00,44.8,43.5,29.96,West,265,0.0,0.0,95,0.01,,---,0.01,VWS V14.01,2013-04-28 10:35:00,
2013-04-28 05:40:00,44.6,43.3,29.96,West,265,0.0,0.0,95,0.01,,---,0.01,VWS V14.01,2013-04-28 10:40:00,
2013-04-28 05:45:00,44.6,43.3,29.96,West,265,0.0,0.0,95,0.01,,---,0.01,VWS V14.01,2013-04-28 10:45:00,
2013-04-28 05:50:00,44.6,43.3,29.96,West,265,0.0,0.0,95,0.01,,---,0.01,VWS V14.01,2013-04-28 10:50:00,
2013-04-28 05:55:00,44.6,43.3,29.96,West,265,0.0,0.0,95,0.01,,---,0.01,VWS V14.01,2013-04-28 10:55:00,
2013-04-28 06:00:00,44.5,43.2,29.96,West,265,0.0,0.0,95,0.01,,---,0.01,VWS V14.01,2013-04-28 11:00:00,
2013-04-28 06:05:00,44.3,43.0,29.96,West,265,0.0,0.0,95,0.01,,---,0.01,VWS V14.01,2013-04-28 11:05:00,
2013-04-28 06:10:00,44.2,42.9,29.96,West,265,0.0,0.0,95,0.01,,---,0.01,VWS V14.01,2013-04-28 11:10:00,
2013-04-28 06:15:00,43.9,42.6,29.96,West,265,0.0,0.0,95,0.01,,---,0.01,VWS V14.01,2013-04-28 11:15:00,
2013-04-28 06:20:00,43.6,42.3,29.96,West,265,0.0,0.0,95,0.01,,---,0.01,VWS V14.01,2013-04-28 11:20:00,
2013-04-28 06:25:00,43.2,41.9,29.96,West,265,0.0,0.0,95,0.01,,---,0.01,VWS V14.01,2013-04-28 11:25:00,
2013-04-28 06:30:00,42.9,41.6,29.95,West,265,0.0,0.0,95,0.00,,---,0.01,VWS V14.01,2013-04-28 11:30:00,
2013-04-28 06:35:00,42.8,41.5,29.95,West,265,0.0,0.0,95,0.00,,---,0.01,VWS V14.01,2013-04-28 11:35:00,
2013-04-28 06:40:00,42.3,41.0,29.95,West,265,0.0,0.0,95,0.00,,---,0.01,VWS V14.01,2013-04-28 11:40:00,
2013-04-28 06:45:00,42.1,40.8,29.96,West,265,0.0,0.0,95,0.00,,---,0.01,VWS V14.01,2013-04-28 11:45:00,
2013-04-28 06:50:00,41.8,40.5,29.96,West,265,0.0,0.0,95,0.00,,---,0.01,VWS V14.01,2013-04-28 11:50:00,
2013-04-28 06:55:00,41.6,40.3,29.96,West,265,0.0,0.0,95,0.00,,---,0.01,VWS V14.01,2013-04-28 11:55:00,
2013-04-28 07:00:00,41.6,40.3,29.97,West,265,0.0,0.0,95,0.00,,---,0.01,VWS V14.01,2013-04-28 12:00:00,
2013-04-28 07:05:00,41.6,40.3,29.97,West,265,0.0,0.0,95,0.00,,---,0.01,VWS V14.01,2013-04-28 12:05:00,
2013-04-28 07:10:00,41.6,40.3,29.97,West,265,0.0,0.0,95,0.00,,---,0.01,VWS V14.01,2013-04-28 12:10:00,
2013-04-28 07:15:00,42.1,41.0,29.97,West,265,0.0,0.0,96,0.00,,---,0.01,VWS V14.01,2013-04-28 12:15:00,
2013-04-28 07:20:00,42.6,41.5,29.97,West,265,0.0,0.0,96,0.00,,---,0.01,VWS V14.01,2013-04-28 12:20:00,
2013-04-28 07:25:00,43.2,42.1,29.97,West,265,0.0,0.0,96,0.00,,---,0.01,VWS V14.01,2013-04-28 12:25:00,
2013-04-28 07:30:00,43.6,42.5,29.97,West,265,0.0,0.0,96,0.00,,---,0.01,VWS V14.01,2013-04-28 12:30:00,
2013-04-28 07:35:00,44.1,43.0,29.97,West,265,0.0,0.0,96,0.00,,---,0.01,VWS V14.01,2013-04-28 12:35:00,
2013-04-28 07:40:00,44.3,43.2,29.97,West,265,0.0,0.0,96,0.00,,---,0.01,VWS V14.01,2013-04-28 12:40:00,
2013-04-28 07:45:00,45.2,44.4,29.98,West,265,0.0,1.0,97,0.00,,---,0.01,VWS V14.01,2013-04-28 12:45:00,
2013-04-28 07:50:00,46.4,45.6,29.98,WSW,243,2.0,3.0,97,0.00,,---,0.01,VWS V14.01,2013-04-28 12:50:00,
2013-04-28 07:55:00,47.3,46.5,29.98,WSW,252,0.0,3.0,97,0.00,,---,0.01,VWS V14.01,2013-04-28 12:55:00,
2013-04-28 08:00:00,48.2,47.4,29.97,West,265,1.0,3.0,97,0.00,,---,0.01,VWS V14.01,2013-04-28 13:00:00,
2013-04-28 08:05:00,48.6,47.8,29.97,WSW,256,3.0,4.0,97,0.00,,---,0.01,VWS V14.01,2013-04-28 13:05:00,
2013-04-28 08:10:00,48.9,47.8,29.97,WSW,252,0.0,5.0,96,0.00,,---,0.01,VWS V14.01,2013-04-28 13:10:00,
2013-04-28 08:15:00,49.2,48.1,29.97,WSW,244,2.0,5.0,96,0.00,,---,0.01,VWS V14.01,2013-04-28 13:15:00,
2013-04-28 08:20:00,49.5,48.4,29.97,WSW,249,2.0,5.0,96,0.00,,---,0.01,VWS V14.01,2013-04-28 13:20:00,
2013-04-28 08:25:00,49.9,49.1,29.97,West,265,2.0,5.0,97,0.00,,---,0.01,VWS V14.01,2013-04-28 13:25:00,
2013-04-28 08:30:00,50.5,49.7,29.97,WSW,258,3.0,5.0,97,0.00,,---,0.01,VWS V14.01,2013-04-28 13:30:00,
2013-04-28 08:35:00,50.8,49.7,29.97,SW,229,3.0,6.0,96,0.00,,---,0.01,VWS V14.01,2013-04-28 13:35:00,
2013-04-28 08:40:00,51.3,50.2,29.97,SW,219,2.0,7.0,96,0.00,,---,0.01,VWS V14.01,2013-04-28 13:40:00,
2013-04-28 08:45:00,51.7,50.6,29.97,WSW,249,4.0,7.0,96,0.00,,---,0.01,VWS V14.01,2013-04-28 13:45:00,
2013-04-28 08:50:00,52.3,51.2,29.97,WSW,252,1.0,7.0,96,0.00,,---,0.01,VWS V14.01,2013-04-28 13:50:00,
2013-04-28 08:55:00,52.8,51.7,29.97,WSW,237,4.0,7.0,96,0.00,,---,0.01,VWS V14.01,2013-04-28 13:55:00,
2013-04-28 09:00:00,53.1,52.0,29.97,WSW,242,2.0,8.0,96,0.00,,---,0.01,VWS V14.01,2013-04-28 14:00:00,
2013-04-28 09:05:00,53.3,52.2,29.97,WSW,242,0.0,5.0,96,0.00,,---,0.01,VWS V14.01,2013-04-28 14:05:00,
2013-04-28 09:10:00,53.8,52.7,29.97,West,275,3.0,5.0,96,0.00,,---,0.01,VWS V14.01,2013-04-28 14:10:00,
2013-04-28 09:15:00,53.9,52.5,29.97,South,191,2.0,5.0,95,0.00,,---,0.01,VWS V14.01,2013-04-28 14:15:00,
2013-04-28 09:20:00,54.1,52.7,29.97,WSW,247,4.0,6.0,95,0.00,,---,0.01,VWS V14.01,2013-04-28 14:20:00,
2013-04-28 09:25:00,54.4,53.0,29.97,WSW,243,1.0,6.0,95,0.00,,---,0.01,VWS V14.01,2013-04-28 14:25:00,
2013-04-28 09:30:00,55.0,53.6,29.97,WSW,246,1.0,6.0,95,0.00,,---,0.01,VWS V14.01,2013-04-28 14:30:00,
2013-04-28 09:35:00,55.4,53.7,29.97,WSW,251,4.0,7.0,94,0.00,,---,0.01,VWS V14.01,2013-04-28 14:35:00,
2013-04-28 09:40:00,55.7,54.0,29.97,WSW,255,3.0,9.0,94,0.00,,---,0.01,VWS V14.01,2013-04-28 14:40:00,
2013-04-28 09:45:00,55.9,53.9,29.97,West,269,3.0,12.0,93,0.00,,---,0.01,VWS V14.01,2013-04-28 14:45:00,
2013-04-28 09:50:00,55.9,53.9,29.97,West,263,2.0,12.0,93,0.00,,---,0.01,VWS V14.01,2013-04-28 14:50:00,
2013-04-28 09:55:00,56.2,54.2,29.97,SW,235,4.0,12.0,93,0.00,,---,0.01,VWS V14.01,2013-04-28 14:55:00,
2013-04-28 10:00:00,56.3,54.0,29.96,WSW,254,4.0,4.0,92,0.00,,---,0.01,VWS V14.01,2013-04-28 15:00:00,
2013-04-28 10:05:00,56.7,54.4,29.96,SW,232,4.0,6.0,92,0.00,,---,0.01,VWS V14.01,2013-04-28 15:05:00,
2013-04-28 10:10:00,57.2,54.9,29.96,West,263,3.0,7.0,92,0.00,,---,0.01,VWS V14.01,2013-04-28 15:10:00,
2013-04-28 10:15:00,57.8,55.5,29.97,SW,221,4.0,7.0,92,0.00,,---,0.01,VWS V14.01,2013-04-28 15:15:00,
2013-04-28 10:20:00,58.0,55.4,29.97,WSW,245,5.0,7.0,91,0.00,,---,0.01,VWS V14.01,2013-04-28 15:20:00,
2013-04-28 10:25:00,58.3,55.7,29.97,South,180,1.0,7.0,91,0.00,,---,0.01,VWS V14.01,2013-04-28 15:25:00,
2013-04-28 10:30:00,58.7,55.8,29.97,SSE,161,1.0,7.0,90,0.00,,---,0.01,VWS V14.01,2013-04-28 15:30:00,
2013-04-28 10:35:00,59.0,56.1,29.97,West,262,4.0,10.0,90,0.00,,---,0.01,VWS V14.01,2013-04-28 15:35:00,
2013-04-28 10:40:00,59.3,56.1,29.97,West,281,2.0,10.0,89,0.00,,---,0.01,VWS V14.01,2013-04-28 15:40:00,
2013-04-28 10:45:00,59.5,56.0,29.97,WSW,257,3.0,10.0,88,0.00,,---,0.01,VWS V14.01,2013-04-28 15:45:00,
2013-04-28 10:50:00,59.9,56.3,29.97,North,360,7.0,10.0,88,0.00,,---,0.01,VWS V14.01,2013-04-28 15:50:00,
2013-04-28 10:55:00,60.1,56.2,29.97,West,274,4.0,10.0,87,0.00,,---,0.01,VWS V14.01,2013-04-28 15:55:00,
2013-04-28 11:00:00,60.2,56.3,29.97,West,262,3.0,10.0,87,0.00,,---,0.01,VWS V14.01,2013-04-28 16:00:00,
2013-04-28 11:05:00,60.5,56.6,29.97,WSW,257,4.0,5.0,87,0.00,,---,0.01,VWS V14.01,2013-04-28 16:05:00,
2013-04-28 11:10:00,60.7,56.5,29.97,SW,232,1.0,8.0,86,0.00,,---,0.01,VWS V14.01,2013-04-28 16:10:00,
2013-04-28 11:15:00,61.0,56.8,29.96,NW,321,0.0,8.0,86,0.00,,---,0.01,VWS V14.01,2013-04-28 16:15:00,
2013-04-28 11:20:00,61.5,57.0,29.96,SSE,164,1.0,8.0,85,0.00,,---,0.01,VWS V14.01,2013-04-28 16:20:00,
2013-04-28 11:25:00,61.8,56.9,29.96,South,182,3.0,8.0,84,0.00,,---,0.01,VWS V14.01,2013-04-28 16:25:00,
2013-04-28 11:30:00,62.1,57.2,29.95,WSW,248,2.0,8.0,84,0.00,,---,0.01,VWS V14.01,2013-04-28 16:30:00,
2013-04-28 11:35:00,62.4,57.2,29.95,West,272,3.0,6.0,83,0.00,,---,0.01,VWS V14.01,2013-04-28 16:35:00,
2013-04-28 11:40:00,63.1,57.9,29.95,West,262,3.0,6.0,83,0.00,,---,0.01,VWS V14.01,2013-04-28 16:40:00,
2013-04-28 11:45:00,63.1,57.2,29.95,West,263,1.0,7.0,81,0.00,,---,0.01,VWS V14.01,2013-04-28 16:45:00,
2013-04-28 11:50:00,63.2,56.9,29.95,WSW,251,3.0,7.0,80,0.00,,---,0.01,VWS V14.01,2013-04-28 16:50:00,
2013-04-28 11:55:00,63.4,57.1,29.95,SW,235,3.0,7.0,80,0.00,,---,0.01,VWS V14.01,2013-04-28 16:55:00,
2013-04-28 12:00:00,63.7,57.1,29.95,WSW,258,5.0,11.0,79,0.00,,---,0.01,VWS V14.01,2013-04-28 17:00:00,
2013-04-28 12:05:00,63.9,56.9,29.95,WSW,254,3.0,7.0,78,0.00,,---,0.01,VWS V14.01,2013-04-28 17:05:00,
2013-04-28 12:10:00,64.2,57.2,29.95,SW,232,6.0,7.0,78,0.00,,---,0.01,VWS V14.01,2013-04-28 17:10:00,
2013-04-28 12:15:00,64.2,56.8,29.94,WSW,257,6.0,8.0,77,0.00,,---,0.01,VWS V14.01,2013-04-28 17:15:00,
2013-04-28 12:20:00,64.3,57.0,29.94,SW,218,3.0,8.0,77,0.00,,---,0.01,VWS V14.01,2013-04-28 17:20:00,
2013-04-28 12:25:00,64.3,56.2,29.94,WSW,242,3.0,8.0,75,0.00,,---,0.01,VWS V14.01,2013-04-28 17:25:00,
2013-04-28 12:30:00,64.3,56.2,29.93,WSW,255,3.0,8.0,75,0.00,,---,0.01,VWS V14.01,2013-04-28 17:30:00,
2013-04-28 12:35:00,64.8,56.7,29.93,West,265,4.0,6.0,75,0.00,,---,0.01,VWS V14.01,2013-04-28 17:35:00,
2013-04-28 12:40:00,65.2,56.7,29.93,West,262,4.0,9.0,74,0.00,,---,0.01,VWS V14.01,2013-04-28 17:40:00,
2013-04-28 12:45:00,65.3,56.8,29.93,WSW,240,3.0,9.0,74,0.00,,---,0.01,VWS V14.01,2013-04-28 17:45:00,
2013-04-28 12:50:00,65.8,57.3,29.93,West,267,3.0,9.0,74,0.00,,---,0.01,VWS V14.01,2013-04-28 17:50:00,
2013-04-28 12:55:00,66.0,57.1,29.93,West,270,1.0,9.0,73,0.00,,---,0.01,VWS V14.01,2013-04-28 17:55:00,
2013-04-28 13:00:00,66.4,57.5,29.93,WSW,254,3.0,9.0,73,0.00,,---,0.01,VWS V14.01,2013-04-28 18:00:00,
2013-04-28 13:05:00,66.6,57.7,29.93,WSW,242,5.0,5.0,73,0.00,,---,0.01,VWS V14.01,2013-04-28 18:05:00,
2013-04-28 13:10:00,66.9,58.0,29.93,WSW,256,5.0,8.0,73,0.00,,---,0.01,VWS V14.01,2013-04-28 18:10:00,
2013-04-28 13:15:00,67.1,58.2,29.92,West,266,4.0,8.0,73,0.00,,---,0.01,VWS V14.01,2013-04-28 18:15:00,
2013-04-28 13:20:00,67.1,57.8,29.92,West,260,5.0,8.0,72,0.00,,---,0.01,VWS V14.01,2013-04-28 18:20:00,
2013-04-28 13:25:00,66.9,57.6,29.92,West,259,3.0,9.0,72,0.00,,---,0.01,VWS V14.01,2013-04-28 18:25:00,
2013-04-28 13:30:00,67.3,58.4,29.91,West,275,5.0,9.0,73,0.00,,---,0.01,VWS V14.01,2013-04-28 18:30:00,
2013-04-28 13:35:00,67.4,58.1,29.91,WSW,258,2.0,7.0,72,0.00,,---,0.01,VWS V14.01,2013-04-28 18:35:00,
2013-04-28 13:40:00,67.6,58.3,29.91,WSW,250,3.0,7.0,72,0.00,,---,0.01,VWS V14.01,2013-04-28 18:40:00,
2013-04-28 13:45:00,68.1,58.3,29.91,West,275,2.0,7.0,71,0.00,,---,0.01,VWS V14.01,2013-04-28 18:45:00,
2013-04-28 13:50:00,68.4,58.6,29.91,West,266,3.0,7.0,71,0.00,,---,0.01,VWS V14.01,2013-04-28 18:50:00,
2013-04-28 13:55:00,68.6,58.8,29.91,WSW,240,4.0,7.0,71,0.00,,---,0.01,VWS V14.01,2013-04-28 18:55:00,
2013-04-28 14:00:00,68.8,58.6,29.91,SW,219,5.0,7.0,70,0.00,,---,0.01,VWS V14.01,2013-04-28 19:00:00,
2013-04-28 14:05:00,68.8,58.6,29.91,SSW,208,2.0,6.0,70,0.00,,---,0.01,VWS V14.01,2013-04-28 19:05:00,
2013-04-28 14:10:00,68.9,58.3,29.91,WSW,257,2.0,7.0,69,0.00,,---,0.01,VWS V14.01,2013-04-28 19:10:00,
2013-04-28 14:15:00,68.9,58.3,29.90,West,277,3.0,8.0,69,0.00,,---,0.01,VWS V14.01,2013-04-28 19:15:00,
2013-04-28 14:20:00,69.1,58.1,29.90,SSE,156,8.0,8.0,68,0.00,,---,0.01,VWS V14.01,2013-04-28 19:20:00,
2013-04-28 14:25:00,69.3,58.3,29.90,West,275,1.0,8.0,68,0.00,,---,0.01,VWS V14.01,2013-04-28 19:25:00,
2013-04-28 14:30:00,69.4,58.0,29.89,WSW,252,4.0,8.0,67,0.00,,---,0.01,VWS V14.01,2013-04-28 19:30:00,
2013-04-28 14:35:00,69.6,58.2,29.89,WNW,298,1.0,9.0,67,0.00,,---,0.01,VWS V14.01,2013-04-28 19:35:00,
2013-04-28 14:40:00,70.1,58.2,29.89,West,263,1.0,9.0,66,0.00,,---,0.01,VWS V14.01,2013-04-28 19:40:00,
2013-04-28 14:45:00,70.6,58.7,29.88,WSW,240,2.0,9.0,66,0.00,,---,0.01,VWS V14.01,2013-04-28 19:45:00,
2013-04-28 14:50:00,70.8,58.9,29.88,WSW,252,4.0,9.0,66,0.00,,---,0.01,VWS V14.01,2013-04-28 19:50:00,
2013-04-28 14:55:00,70.8,58.5,29.88,WNW,292,3.0,9.0,65,0.00,,---,0.01,VWS V14.01,2013-04-28 19:55:00,
2013-04-28 15:00:00,70.9,58.6,29.88,WSW,257,5.0,9.0,65,0.00,,---,0.01,VWS V14.01,2013-04-28 20:00:00,
2013-04-28 15:05:00,71.1,58.3,29.88,West,270,4.0,7.0,64,0.00,,---,0.01,VWS V14.01,2013-04-28 20:05:00,
2013-04-28 15:10:00,71.5,58.7,29.88,West,279,3.0,8.0,64,0.00,,---,0.01,VWS V14.01,2013-04-28 20:10:00,
2013-04-28 15:15:00,71.5,58.7,29.86,West,259,2.0,8.0,64,0.00,,---,0.01,VWS V14.01,2013-04-28 20:15:00,
2013-04-28 15:20:00,71.6,58.3,29.86,WNW,289,4.0,8.0,63,0.00,,---,0.01,VWS V14.01,2013-04-28 20:20:00,
2013-04-28 15:25:00,71.8,58.5,29.86,West,265,5.0,8.0,63,0.00,,---,0.01,VWS V14.01,2013-04-28 20:25:00,
2013-04-28 15:30:00,72.1,58.8,29.86,SSW,202,2.0,8.0,63,0.00,,---,0.01,VWS V14.01,2013-04-28 20:30:00,
2013-04-28 15:35:00,72.3,58.6,29.86,West,273,6.0,6.0,62,0.00,,---,0.01,VWS V14.01,2013-04-28 20:35:00,
2013-04-28 15:40:00,72.5,58.8,29.86,South,171,3.0,6.0,62,0.00,,---,0.01,VWS V14.01,2013-04-28 20:40:00,
2013-04-28 15:45:00,72.8,58.6,29.85,SSE,148,5.0,6.0,61,0.00,,---,0.01,VWS V14.01,2013-04-28 20:45:00,
2013-04-28 15:50:00,73.0,58.8,29.85,SW,221,1.0,6.0,61,0.00,,---,0.01,VWS V14.01,2013-04-28 20:50:00,
2013-04-28 15:55:00,73.0,58.8,29.85,WSW,254,1.0,6.0,61,0.00,,---,0.01,VWS V14.01,2013-04-28 20:55:00,
2013-04-28 16:00:00,73.0,58.3,29.83,West,278,2.0,8.0,60,0.00,,---,0.01,VWS V14.01,2013-04-28 21:00:00,
2013-04-28 16:05:00,73.0,58.3,29.83,SE,135,1.0,7.0,60,0.00,,---,0.01,VWS V14.01,2013-04-28 21:05:00,
2013-04-28 16:10:00,73.0,58.3,29.83,WSW,257,2.0,7.0,60,0.00,,---,0.01,VWS V14.01,2013-04-28 21:10:00,
2013-04-28 16:15:00,73.0,57.8,29.82,West,277,3.0,7.0,59,0.00,,---,0.01,VWS V14.01,2013-04-28 21:15:00,
2013-04-28 16:20:00,73.0,57.8,29.82,West,278,3.0,7.0,59,0.00,,---,0.01,VWS V14.01,2013-04-28 21:20:00,
2013-04-28 16:25:00,73.0,57.4,29.82,West,271,5.0,7.0,58,0.00,,---,0.01,VWS V14.01,2013-04-28 21:25:00,
2013-04-28 16:30:00,72.8,56.7,29.81,SSW,204,2.0,7.0,57,0.00,,---,0.01,VWS V14.01,2013-04-28 21:30:00,
2013-04-28 16:35:00,73.3,57.7,29.81,West,262,2.0,9.0,58,0.00,,---,0.01,VWS V14.01,2013-04-28 21:35:00,
2013-04-28 16:40:00,73.5,57.3,29.81,WSW,257,5.0,9.0,57,0.00,,---,0.01,VWS V14.01,2013-04-28 21:40:00,
2013-04-28 16:45:00,73.2,56.6,29.81,WNW,302,6.0,9.0,56,0.00,,---,0.01,VWS V14.01,2013-04-28 21:45:00,
2013-04-28 16:50:00,73.2,57.1,29.81,WNW,290,0.0,9.0,57,0.00,,---,0.01,VWS V14.01,2013-04-28 21:50:00,
2013-04-28 16:55:00,73.2,57.1,29.81,SSE,165,1.0,9.0,57,0.00,,---,0.01,VWS V14.01,2013-04-28 21:55:00,
2013-04-28 17:00:00,73.0,56.4,29.81,SW,225,2.0,9.0,56,0.00,,---,0.01,VWS V14.01,2013-04-28 22:00:00,
2013-04-28 17:05:00,73.0,55.9,29.81,WNW,286,1.0,6.0,55,0.00,,---,0.01,VWS V14.01,2013-04-28 22:05:00,
2013-04-28 17:10:00,73.0,55.9,29.81,WNW,286,3.0,7.0,55,0.00,,---,0.01,VWS V14.01,2013-04-28 22:10:00,
2013-04-28 17:15:00,73.2,56.1,29.80,West,263,4.0,7.0,55,0.00,,---,0.01,VWS V14.01,2013-04-28 22:15:00,
2013-04-28 17:20:00,73.3,56.2,29.80,West,261,0.0,8.0,55,0.00,,---,0.01,VWS V14.01,2013-04-28 22:20:00,
2013-04-28 17:25:00,73.3,55.7,29.80,West,265,0.0,8.0,54,0.00,,---,0.01,VWS V14.01,2013-04-28 22:25:00,
2013-04-28 17:30:00,73.5,55.9,29.80,West,274,4.0,8.0,54,0.00,,---,0.01,VWS V14.01,2013-04-28 22:30:00,
2013-04-28 17:35:00,73.7,56.0,29.80,WNW,286,5.0,6.0,54,0.00,,---,0.01,VWS V14.01,2013-04-28 22:35:00,
2013-04-28 17:40:00,73.5,55.3,29.80,SSW,192,4.0,9.0,53,0.00,,---,0.01,VWS V14.01,2013-04-28 22:40:00,
2013-04-28 17:45:00,73.3,55.2,29.80,West,269,5.0,9.0,53,0.00,,---,0.01,VWS V14.01,2013-04-28 22:45:00,
2013-04-28 17:50:00,73.5,55.3,29.80,West,275,4.0,9.0,53,0.00,,---,0.01,VWS V14.01,2013-04-28 22:50:00,
2013-04-28 17:55:00,73.7,55.5,29.80,South,170,3.0,9.0,53,0.00,,---,0.01,VWS V14.01,2013-04-28 22:55:00,
2013-04-28 18:00:00,73.5,55.3,29.79,West,259,3.0,9.0,53,0.00,,---,0.01,VWS V14.01,2013-04-28 23:00:00,
2013-04-28 18:05:00,73.5,54.8,29.79,SW,236,4.0,8.0,52,0.00,,---,0.01,VWS V14.01,2013-04-28 23:05:00,
2013-04-28 18:10:00,73.2,54.0,29.79,West,276,4.0,8.0,51,0.00,,---,0.01,VWS V14.01,2013-04-28 23:10:00,
2013-04-28 18:15:00,73.2,54.0,29.79,West,267,4.0,8.0,51,0.00,,---,0.01,VWS V14.01,2013-04-28 23:15:00,
2013-04-28 18:20:00,73.2,53.5,29.79,West,259,4.0,8.0,50,0.00,,---,0.01,VWS V14.01,2013-04-28 23:20:00,
2013-04-28 18:25:00,73.0,53.3,29.79,WSW,250,5.0,10.0,50,0.00,,---,0.01,VWS V14.01,2013-04-28 23:25:00,
2013-04-28 18:30:00,73.0,53.3,29.78,WSW,242,4.0,10.0,50,0.00,,---,0.01,VWS V14.01,2013-04-28 23:30:00,
2013-04-28 18:35:00,73.0,53.3,29.78,WSW,250,6.0,8.0,50,0.00,,---,0.01,VWS V14.01,2013-04-28 23:35:00,
2013-04-28 18:40:00,72.8,53.6,29.78,West,269,4.0,8.0,51,0.00,,---,0.01,VWS V14.01,2013-04-28 23:40:00,
2013-04-28 18:45:00,72.8,53.1,29.79,West,281,3.0,8.0,50,0.00,,---,0.01,VWS V14.01,2013-04-28 23:45:00,
2013-04-28 18:50:00,72.7,53.0,29.79,WSW,258,2.0,8.0,50,0.00,,---,0.01,VWS V14.01,2013-04-28 23:50:00,
2013-04-28 18:55:00,72.3,52.6,29.79,West,275,3.0,8.0,50,0.00,,---,0.01,VWS V14.01,2013-04-28 23:55:00,
2013-04-28 19:00:00,72.1,52.5,29.78,West,273,3.0,8.0,50,0.00,,---,0.01,VWS V14.01,2013-04-29 00:00:00,
2013-04-28 19:05:00,72.0,52.4,29.78,WSW,257,3.0,5.0,50,0.00,,---,0.01,VWS V14.01,2013-04-29 00:05:00,
2013-04-28 19:10:00,71.8,52.7,29.78,WSW,256,2.0,5.0,51,0.00,,---,0.01,VWS V14.01,2013-04-29 00:10:00,
2013-04-28 19:15:00,71.6,53.1,29.78,WNW,282,1.0,5.0,52,0.00,,---,0.01,VWS V14.01,2013-04-29 00:15:00,
2013-04-28 19:20:00,71.6,53.6,29.78,WSW,257,1.0,5.0,53,0.00,,---,0.01,VWS V14.01,2013-04-29 00:20:00,
2013-04-28 19:25:00,71.3,53.8,29.78,WNW,282,2.0,5.0,54,0.00,,---,0.01,VWS V14.01,2013-04-29 00:25:00,
2013-04-28 19:30:00,71.1,53.6,29.78,West,275,3.0,7.0,54,0.00,,---,0.01,VWS V14.01,2013-04-29 00:30:00,
2013-04-28 19:35:00,70.8,53.8,29.78,West,278,1.0,4.0,55,0.00,,---,0.01,VWS V14.01,2013-04-29 00:35:00,
2013-04-28 19:40:00,70.4,54.0,29.78,West,265,4.0,7.0,56,0.00,,---,0.01,VWS V14.01,2013-04-29 00:40:00,
2013-04-28 19:45:00,69.9,54.0,29.78,WNW,284,0.0,7.0,57,0.00,,---,0.01,VWS V14.01,2013-04-29 00:45:00,
2013-04-28 19:50:00,69.6,54.2,29.78,West,277,0.0,7.0,58,0.00,,---,0.01,VWS V14.01,2013-04-29 00:50:00,
2013-04-28 19:55:00,69.1,53.7,29.78,West,281,1.0,7.0,58,0.00,,---,0.01,VWS V14.01,2013-04-29 00:55:00,
2013-04-28 20:00:00,68.8,53.9,29.79,West,265,1.0,7.0,59,0.00,,---,0.01,VWS V14.01,2013-04-29 01:00:00,
2013-04-28 20:05:00,68.4,53.5,29.79,SSW,209,0.0,2.0,59,0.00,,---,0.01,VWS V14.01,2013-04-29 01:05:00,
2013-04-28 20:10:00,67.9,53.5,29.79,SE,136,0.0,3.0,60,0.00,,---,0.01,VWS V14.01,2013-04-29 01:10:00,
2013-04-28 20:15:00,67.4,53.0,29.79,SSE,153,0.0,3.0,60,0.00,,---,0.01,VWS V14.01,2013-04-29 01:15:00,
2013-04-28 20:20:00,66.9,53.0,29.79,SSE,161,0.0,3.0,61,0.00,,---,0.01,VWS V14.01,2013-04-29 01:20:00,
2013-04-28 20:25:00,66.4,52.6,29.79,South,188,1.0,4.0,61,0.00,,---,0.01,VWS V14.01,2013-04-29 01:25:00,
2013-04-28 20:30:00,66.0,52.6,29.78,SSE,163,0.0,4.0,62,0.00,,---,0.01,VWS V14.01,2013-04-29 01:30:00,
2013-04-28 20:35:00,65.6,52.2,29.78,SSE,158,0.0,3.0,62,0.00,,---,0.01,VWS V14.01,2013-04-29 01:35:00,
2013-04-28 20:40:00,65.3,52.4,29.78,SE,141,2.0,3.0,63,0.00,,---,0.01,VWS V14.01,2013-04-29 01:40:00,
2013-04-28 20:45:00,65.0,52.1,29.78,SE,132,0.0,3.0,63,0.00,,---,0.01,VWS V14.01,2013-04-29 01:45:00,
2013-04-28 20:50:00,64.7,52.3,29.78,SE,143,1.0,3.0,64,0.00,,---,0.01,VWS V14.01,2013-04-29 01:50:00,
2013-04-28 20:55:00,64.3,51.9,29.78,SSE,155,0.0,3.0,64,0.00,,---,0.01,VWS V14.01,2013-04-29 01:55:00,
2013-04-28 21:00:00,63.9,51.5,29.79,SSE,155,0.0,3.0,64,0.00,,---,0.01,VWS V14.01,2013-04-29 02:00:00,
2013-04-28 21:05:00,63.7,51.7,29.79,South,184,0.0,2.0,65,0.00,,---,0.01,VWS V14.01,2013-04-29 02:05:00,
2013-04-28 21:10:00,63.4,51.4,29.79,SSE,149,0.0,3.0,65,0.00,,---,0.01,VWS V14.01,2013-04-29 02:10:00,
2013-04-28 21:15:00,63.2,51.7,29.79,SE,128,0.0,3.0,66,0.00,,---,0.01,VWS V14.01,2013-04-29 02:15:00,
2013-04-28 21:20:00,63.1,51.6,29.79,SSE,156,0.0,3.0,66,0.00,,---,0.01,VWS V14.01,2013-04-29 02:20:00,
2013-04-28 21:25:00,62.9,51.4,29.79,SE,139,1.0,5.0,66,0.00,,---,0.01,VWS V14.01,2013-04-29 02:25:00,
2013-04-28 21:30:00,62.7,51.6,29.79,SSE,163,0.0,5.0,67,0.00,,---,0.01,VWS V14.01,2013-04-29 02:30:00,
2013-04-28 21:35:00,62.6,51.5,29.79,SSE,162,2.0,3.0,67,0.00,,---,0.01,VWS V14.01,2013-04-29 02:35:00,
2013-04-28 21:40:00,62.4,51.7,29.79,SSE,151,0.0,3.0,68,0.00,,---,0.01,VWS V14.01,2013-04-29 02:40:00,
2013-04-28 21:45:00,62.3,51.6,29.79,South,173,0.0,3.0,68,0.00,,---,0.01,VWS V14.01,2013-04-29 02:45:00,
2013-04-28 21:50:00,62.0,51.3,29.79,SSE,164,1.0,3.0,68,0.00,,---,0.01,VWS V14.01,2013-04-29 02:50:00,
2013-04-28 21:55:00,61.8,51.1,29.79,SSE,165,0.0,3.0,68,0.00,,---,0.01,VWS V14.01,2013-04-29 02:55:00,
2013-04-28 22:00:00,61.5,51.2,29.79,SSE,159,0.0,3.0,69,0.00,,---,0.01,VWS V14.01,2013-04-29 03:00:00,
2013-04-28 22:05:00,61.2,51.0,29.79,SSE,159,1.0,3.0,69,0.00,,---,0.01,VWS V14.01,2013-04-29 03:05:00,
2013-04-28 22:10:00,61.0,50.8,29.79,SSE,148,0.0,3.0,69,0.00,,---,0.01,VWS V14.01,2013-04-29 03:10:00,
2013-04-28 22:15:00,60.9,51.1,29.79,ESE,116,1.0,3.0,70,0.00,,---,0.01,VWS V14.01,2013-04-29 03:15:00,
2013-04-28 22:20:00,60.7,50.9,29.79,SSE,150,2.0,3.0,70,0.00,,---,0.01,VWS V14.01,2013-04-29 03:20:00,
2013-04-28 22:25:00,60.5,51.1,29.79,SSE,154,0.0,3.0,71,0.00,,---,0.01,VWS V14.01,2013-04-29 03:25:00,
2013-04-28 22:30:00,60.5,51.1,29.79,SSE,147,1.0,4.0,71,0.00,,---,0.01,VWS V14.01,2013-04-29 03:30:00,
2013-04-28 22:35:00,60.4,51.3,29.79,SSE,166,4.0,4.0,72,0.00,,---,0.01,VWS V14.01,2013-04-29 03:35:00,
2013-04-28 22:40:00,60.4,51.3,29.79,SE,144,1.0,5.0,72,0.00,,---,0.01,VWS V14.01,2013-04-29 03:40:00,
2013-04-28 22:45:00,60.4,51.7,29.79,South,182,0.0,5.0,73,0.00,,---,0.01,VWS V14.01,2013-04-29 03:45:00,
2013-04-28 22:50:00,60.5,51.8,29.79,WSW,250,2.0,5.0,73,0.00,,---,0.01,VWS V14.01,2013-04-29 03:50:00,
2013-04-28 22:55:00,60.5,51.8,29.79,South,175,3.0,5.0,73,0.00,,---,0.01,VWS V14.01,2013-04-29 03:55:00,
2013-04-28 23:00:00,60.5,52.2,29.78,SW,214,0.0,5.0,74,0.00,,---,0.01,VWS V14.01,2013-04-29 04:00:00,
2013-04-28 23:01:00,60.5,52.2,29.78,West,270,0.0,1.0,74,0.00,,---,0.01,VWS V14.01,2013-04-29 04:01:00,
2013-04-28 23:06:00,60.4,52.1,29.78,SE,146,0.0,3.0,74,0.00,,---,0.01,VWS V14.01,2013-04-29 04:06:00,
2013-04-28 23:11:00,60.4,52.5,29.78,SSE,149,3.0,4.0,75,0.00,,---,0.01,VWS V14.01,2013-04-29 04:11:00,
2013-04-28 23:16:00,60.4,52.5,29.78,SSE,149,0.0,6.0,75,0.00,,---,0.01,VWS V14.01,2013-04-29 04:16:00,
2013-04-28 23:21:00,60.2,52.3,29.78,SSE,165,1.0,6.0,75,0.00,,---,0.01,VWS V14.01,2013-04-29 04:21:00,
2013-04-28 23:26:00,60.1,52.5,29.78,SW,222,0.0,6.0,76,0.00,,---,0.01,VWS V14.01,2013-04-29 04:26:00,
2013-04-28 23:30:00,60.4,51.0,29.79,SSE,147,0.0,4.0,71,0.00,,---,0.01,VWS V14.01,2013-04-29 04:30:00,
2013-04-28 23:31:00,59.9,52.3,29.79,SSE,154,0.0,1.0,76,0.00,,---,0.01,VWS V14.01,2013-04-29 04:31:00,
2013-04-28 23:36:00,59.8,52.2,29.79,SSE,154,0.0,3.0,76,0.00,,---,0.01,VWS V14.01,2013-04-29 04:36:00,
2013-04-28 23:41:00,59.6,52.4,29.79,SSE,154,0.0,3.0,77,0.00,,---,0.01,VWS V14.01,2013-04-29 04:41:00,
2013-04-28 23:46:00,59.5,52.3,29.79,SSE,163,0.0,3.0,77,0.00,,---,0.01,VWS V14.01,2013-04-29 04:46:00,
2013-04-28 23:51:00,59.3,52.5,29.79,South,181,2.0,3.0,78,0.00,,---,0.01,VWS V14.01,2013-04-29 04:51:00,
2013-04-28 23:56:00,59.3,52.5,29.79,SSW,206,2.0,3.0,78,0.00,,---,0.01,VWS V14.01,2013-04-29 04:56:00,